Location: Star Hoppers Observatory
(42.7905°N, 83.6127°W)
Time: 03:50:36
(UTC-04:00)

Amateur Radio Satellites - All Passes

Search period start: 24 April 2014 03:20
Search period end: 25 April 2014 03:20
Location: Star Hoppers Observatory, 42.7905°N, 83.6127°W

Satellite Date Start Highest point End Downlink Frequencies (MHz)
Time Altitude Azimuth
UOSAT-12 24 Apr 03:25:24 03:28:43 19° 249° (WSW) 03:32:02 437.025 FM, 437.400 FM
KITSAT 1 24 Apr 03:27:10 03:35:17 79° 303° (WNW) 03:43:28 435.175 FM
AO-27 24 Apr 03:33:27 03:38:34 57° 101° (E) 03:43:39 436.795 MHz FM
Oscar 19 24 Apr 03:36:28 03:41:41 73° 286° (WNW) 03:46:51 437.125 CW, 437.150 USB
OPAL 24 Apr 03:37:51 03:42:52 69° 256° (WSW) 03:48:01 ?
ITAMSAT 1 24 Apr 03:42:48 03:47:59 69° 102° (ESE) 03:53:08 435.822 SSB
Oscar 16 24 Apr 03:45:44 03:50:50 56° 288° (WNW) 03:55:54 437.025 USB, Beacon 2401.1428
Gurwin Techsat 1B 24 Apr 03:54:01 03:58:37 29° 95° (E) 04:03:10 435.225 FM
JAS-1B 24 Apr 04:19:58 04:23:55 19° 93° (E) 04:28:02 435.800 - 435.900 CW/SSB
Uribyol 2 24 Apr 04:30:12 04:35:05 43° 291° (WNW) 04:39:57 436.500 FM
TMSAT-1 24 Apr 04:38:36 04:43:48 53° 100° (E) 04:48:57 436.925 FM
AO-Echo 24 Apr 04:38:58 04:43:25 41° 290° (WNW) 04:47:47 ?
AO-7 24 Apr 04:39:35 04:44:59 18° 90° (E) 04:50:22 29.400 - 29.500 MHz
Uosat F 24 Apr 05:01:42 05:06:07 30° 96° (E) 05:10:29 435.120 FM
AO-27 24 Apr 05:14:00 05:17:39 20° 298° (WNW) 05:21:17 436.795 MHz FM
Oscar 19 24 Apr 05:19:11 05:20:05 10° 304° (NW) 05:21:00 437.125 CW, 437.150 USB
RS-15 24 Apr 05:23:27 05:31:37 24° 101° (ESE) 05:39:34 29.354 - 29.394 USB, Beacon 29.352 USB
ITAMSAT 1 24 Apr 05:23:43 05:26:55 17° 300° (WNW) 05:30:07 435.822 SSB
KITSAT 1 24 Apr 05:25:42 05:32:04 24° 327° (NNW) 05:38:27 435.175 FM
Gurwin Techsat 1B 24 Apr 05:33:46 05:38:38 37° 292° (WNW) 05:43:28 435.225 FM
AO-40 24 Apr 05:40:58 10:58:04 35° 180° (S) 16:40:54 Beacon 2401.320
JAS-1B 24 Apr 06:09:29 06:15:02 58° 289° (WNW) 06:20:56 435.800 - 435.900 CW/SSB
TMSAT-1 24 Apr 06:19:23 06:23:20 22° 297° (WNW) 06:27:16 436.925 FM
STRAND 1 24 Apr 06:25:11 06:29:23 26° 65° (ENE) 06:33:34 ?
AO-7 24 Apr 06:30:26 06:38:49 89° 109° (ESE) 06:47:10 29.400 - 29.500 MHz
Uosat F 24 Apr 06:40:27 06:44:53 33° 293° (WNW) 06:49:18 435.120 FM
MaSat-1 24 Apr 06:51:50 06:54:55 79° 244° (WSW) 06:58:35 437.345 MHz
JAS-2 24 Apr 07:24:30 07:28:00 17° 92° (E) 07:31:42 435.800 - 435.900 CW/SSB, 435.910 FM
KITSAT 1 24 Apr 07:27:38 07:31:05 13° 357° (N) 07:34:32 435.175 FM
RS-15 24 Apr 07:31:09 07:42:30 89° 302° (WNW) 07:53:32 29.354 - 29.394 USB, Beacon 29.352 USB
Hamsat 24 Apr 07:42:47 07:47:08 63° 101° (E) 07:51:27 145.90 MHz
PCSat 24 Apr 07:53:06 07:56:49 18° 41° (NE) 08:00:30 145.825 MHz
STRAND 1 24 Apr 08:03:35 08:08:22 40° 262° (W) 08:13:10 ?
AO-7 24 Apr 08:24:30 08:30:36 23° 309° (NW) 08:36:42 29.400 - 29.500 MHz
SO-67 24 Apr 08:51:08 08:54:38 74° 101° (ESE) 08:58:07 435.3500 MHz FM
Sapphire 24 Apr 08:51:16 08:56:23 40° 52° (NE) 09:01:28 437.095 MHz 1200 baud AX-25 AFSK
JAS-2 24 Apr 09:08:00 09:13:30 71° 286° (WNW) 09:19:37 435.800 - 435.900 CW/SSB, 435.910 FM
HO-68 24 Apr 09:15:28 09:19:04 14° 88° (E) 09:22:38 435.675 MHz FM
Hamsat 24 Apr 09:20:25 09:22:36 14° 297° (WNW) 09:24:46 145.90 MHz
KITSAT 1 24 Apr 09:24:44 09:30:25 20° 27° (NNE) 09:36:04 435.175 FM
PCSat 24 Apr 09:35:31 09:40:59 88° 241° (WSW) 09:46:24 145.825 MHz
RS-15 24 Apr 09:46:40 09:56:26 34° 329° (NNW) 10:06:05 29.354 - 29.394 USB, Beacon 29.352 USB
Saudisat 1A 24 Apr 10:18:09 10:22:18 39° 117° (ESE) 10:26:27 436.775 MHz
Sapphire 24 Apr 10:34:57 10:39:40 31° 250° (WSW) 10:44:22 437.095 MHz 1200 baud AX-25 AFSK
JAS-2 24 Apr 10:56:49 10:57:47 10° 303° (WNW) 10:58:47 435.800 - 435.900 CW/SSB, 435.910 FM
HO-68 24 Apr 11:00:33 11:07:47 82° 106° (ESE) 11:14:59 435.675 MHz FM
Oscar 11 24 Apr 11:11:12 11:15:30 53° 100° (E) 11:19:45 145.825 FM, Beacon 2401.500 USB
FUNcube-1 24 Apr 11:17:32 11:20:46 20° 94° (E) 11:24:03 145.950 - 145.970 MHz USB
KITSAT 1 24 Apr 11:19:40 11:27:42 60° 53° (NE) 11:35:39 435.175 FM
PCSat 24 Apr 11:21:37 11:23:33 12° 258° (WSW) 11:25:29 145.825 MHz
Oscar 10/S400 24 Apr 11:24:19 13:01:33 49° 236° (SW) 18:51:56 145.825 - 145.975 CW/USB, Beacon 145.810 USB
Saudisat 1A 24 Apr 11:58:10 12:02:00 27° 315° (NW) 12:05:51 436.775 MHz
RS-15 24 Apr 12:05:13 12:13:23 23° 4° (N) 12:21:33 29.354 - 29.394 USB, Beacon 29.352 USB
Oscar 11 24 Apr 12:48:38 12:51:16 16° 297° (WNW) 12:53:53 145.825 FM, Beacon 2401.500 USB
HO-68 24 Apr 12:49:31 12:54:41 22° 305° (NW) 12:59:51 435.675 MHz FM
FUNcube-1 24 Apr 12:53:20 12:57:18 37° 289° (WNW) 13:01:20 145.950 - 145.970 MHz USB
KITSAT 1 24 Apr 13:15:41 13:22:40 33° 253° (WSW) 13:29:37 435.175 FM
Oscar 19 24 Apr 13:16:21 13:20:22 24° 64° (ENE) 13:24:24 437.125 CW, 437.150 USB
AO-27 24 Apr 13:16:26 13:18:52 13° 58° (ENE) 13:21:17 436.795 MHz FM
ISS 24 Apr 13:22:45 13:24:48 15° 132° (SE) 13:26:51 145.800 FM
ITAMSAT 1 24 Apr 13:25:01 13:28:01 16° 60° (ENE) 13:31:02 435.822 SSB
Oscar 16 24 Apr 13:25:07 13:29:32 30° 66° (ENE) 13:33:58 437.025 USB, Beacon 2401.1428
SO-50 24 Apr 14:06:04 14:08:51 16° 110° (ESE) 14:11:38 436.795 FM
Uribyol 2 24 Apr 14:09:50 14:14:37 40° 69° (ENE) 14:19:25 436.500 FM
AO-Echo 24 Apr 14:14:06 14:18:41 33° 68° (ENE) 14:23:10 ?
RS-15 24 Apr 14:19:37 14:29:49 41° 38° (NE) 14:40:07 29.354 - 29.394 USB, Beacon 29.352 USB
TMSAT-1 24 Apr 14:24:04 14:26:21 13° 58° (ENE) 14:28:39 436.925 FM
AO-27 24 Apr 14:52:27 14:57:39 87° 256° (WSW) 15:02:52 436.795 MHz FM
Oscar 19 24 Apr 14:54:28 14:59:24 46° 261° (W) 15:04:24 437.125 CW, 437.150 USB
ISS 24 Apr 14:57:50 15:01:09 69° 328° (NNW) 15:04:30 145.800 FM
ITAMSAT 1 24 Apr 15:01:44 15:06:54 74° 257° (WSW) 15:12:06 435.822 SSB
Oscar 16 24 Apr 15:04:05 15:08:46 36° 263° (W) 15:13:31 437.025 USB, Beacon 2401.1428
JAS-1B 24 Apr 15:06:18 15:11:47 24° 62° (ENE) 15:16:40 435.800 - 435.900 CW/SSB
Gurwin Techsat 1B 24 Apr 15:15:47 15:20:52 49° 70° (ENE) 15:25:59 435.225 FM
AO-7 24 Apr 15:39:20 15:46:13 31° 56° (NE) 15:53:07 29.400 - 29.500 MHz
SO-50 24 Apr 15:44:31 15:48:56 58° 307° (NW) 15:53:25 436.795 FM
OPAL 24 Apr 15:47:16 15:51:50 30° 98° (E) 15:56:20 ?
Uribyol 2 24 Apr 15:49:57 15:54:13 26° 265° (W) 15:58:30 436.500 FM
AO-Echo 24 Apr 15:52:51 15:57:25 31° 264° (W) 16:01:55 ?
UOSAT-12 24 Apr 15:59:04 16:01:02 13° 108° (ESE) 16:03:01 437.025 FM, 437.400 FM
TMSAT-1 24 Apr 16:00:11 16:05:29 87° 75° (ENE) 16:10:49 436.925 FM
Uosat F 24 Apr 16:15:40 16:20:27 46° 70° (ENE) 16:25:14 435.120 FM
RS-15 24 Apr 16:32:06 16:42:57 70° 243° (WSW) 16:54:05 29.354 - 29.394 USB, Beacon 29.352 USB
ISS 24 Apr 16:35:41 16:38:19 21° 348° (NNW) 16:40:58 145.800 FM
AO-27 24 Apr 16:37:07 16:37:53 10° 272° (W) 16:38:39 436.795 MHz FM
JAS-1B 24 Apr 16:54:22 17:02:04 67° 257° (WSW) 17:08:32 435.800 - 435.900 CW/SSB
Gurwin Techsat 1B 24 Apr 16:57:04 17:01:06 22° 267° (W) 17:05:10 435.225 FM
OPAL 24 Apr 17:25:57 17:30:44 37° 295° (WNW) 17:35:29 ?
SO-50 24 Apr 17:28:57 17:30:30 12° 328° (NNW) 17:32:03 436.795 FM
AO-7 24 Apr 17:30:13 17:38:26 67° 255° (WSW) 17:46:42 29.400 - 29.500 MHz
UOSAT-12 24 Apr 17:35:58 17:40:31 77° 305° (NW) 17:45:12 437.025 FM, 437.400 FM
TMSAT-1 24 Apr 17:44:20 17:46:06 12° 272° (W) 17:47:52 436.925 FM
Uosat F 24 Apr 17:55:40 17:59:27 21° 267° (W) 18:03:15 435.120 FM
ISS 24 Apr 18:13:24 18:15:54 19° 8° (N) 18:18:24 145.800 FM
Hamsat 24 Apr 18:37:01 18:41:05 48° 73° (ENE) 18:45:12 145.90 MHz
Saudisat 1A 24 Apr 18:44:07 18:48:19 40° 49° (NE) 18:52:28 436.775 MHz
RS-15 24 Apr 18:47:50 18:53:10 15° 263° (W) 18:58:36 29.354 - 29.394 USB, Beacon 29.352 USB
UOSAT-12 24 Apr 19:18:55 19:21:30 15° 325° (NW) 19:24:05 437.025 FM, 437.400 FM
JAS-2 24 Apr 19:21:39 19:27:01 52° 71° (ENE) 19:32:04 435.800 - 435.900 CW/SSB, 435.910 FM
SO-67 24 Apr 19:25:54 19:28:53 27° 71° (ENE) 19:31:54 435.3500 MHz FM
AO-7 24 Apr 19:30:01 19:32:43 12° 274° (W) 19:35:26 29.400 - 29.500 MHz
HO-68 24 Apr 19:46:42 19:50:08 14° 49° (NE) 19:53:35 435.675 MHz FM
ISS 24 Apr 19:49:56 19:53:12 47° 28° (NNE) 19:56:28 145.800 FM
STRAND 1 24 Apr 20:12:57 20:18:02 64° 102° (ESE) 20:23:05 ?
Hamsat 24 Apr 20:14:56 20:17:22 15° 269° (W) 20:19:49 145.90 MHz
Saudisat 1A 24 Apr 20:24:12 20:27:42 23° 247° (WSW) 20:31:09 436.775 MHz
MaSat-1 24 Apr 20:55:56 20:58:29 32° 113° (ESE) 21:00:49 437.345 MHz
SO-67 24 Apr 20:59:40 21:02:04 18° 267° (W) 21:04:29 435.3500 MHz FM
JAS-2 24 Apr 21:08:27 21:12:26 20° 267° (W) 21:16:14 435.800 - 435.900 CW/SSB, 435.910 FM
ISS 24 Apr 21:27:00 21:29:45 24° 225° (SW) 21:32:31 145.800 FM
HO-68 24 Apr 21:29:29 21:36:31 67° 69° (ENE) 21:43:37 435.675 MHz FM
STRAND 1 24 Apr 21:53:26 21:56:42 18° 299° (WNW) 21:59:58 ?
Oscar 11 24 Apr 22:07:03 22:11:10 46° 72° (ENE) 22:15:19 145.825 FM, Beacon 2401.500 USB
FUNcube-1 24 Apr 22:15:44 22:18:36 18° 65° (ENE) 22:21:28 145.950 - 145.970 MHz USB
SO-50 24 Apr 22:35:22 22:39:06 24° 43° (NE) 22:42:53 436.795 FM
HO-68 24 Apr 23:19:13 23:24:45 24° 267° (W) 23:30:20 435.675 MHz FM
Sapphire 24 Apr 23:34:26 23:39:04 30° 109° (ESE) 23:43:44 437.095 MHz 1200 baud AX-25 AFSK
Oscar 11 24 Apr 23:44:52 23:47:36 16° 268° (W) 23:50:21 145.825 FM, Beacon 2401.500 USB
FUNcube-1 24 Apr 23:50:50 23:54:45 39° 262° (W) 23:58:41 145.950 - 145.970 MHz USB
SO-50 25 Apr 00:15:26 00:19:58 53° 241° (WSW) 00:24:32 436.795 FM
PCSat 25 Apr 00:17:48 00:23:11 75° 117° (ESE) 00:28:37 145.825 MHz
UOSAT-12 25 Apr 00:25:33 00:28:59 19° 39° (NE) 00:32:23 437.025 FM, 437.400 FM
Sapphire 25 Apr 01:17:13 01:22:19 42° 308° (NW) 01:27:29 437.095 MHz 1200 baud AX-25 AFSK
KITSAT 1 25 Apr 01:49:20 01:56:28 36° 108° (ESE) 02:03:37 435.175 FM
PCSat 25 Apr 02:03:11 02:07:12 21° 317° (NW) 02:11:14 145.825 MHz
UOSAT-12 25 Apr 02:04:55 02:09:39 73° 239° (WSW) 02:14:19 437.025 FM, 437.400 FM
Uribyol 2 25 Apr 02:23:29 02:25:48 13° 89° (E) 02:28:07 436.500 FM
OPAL 25 Apr 03:02:49 03:07:45 57° 69° (ENE) 03:12:48 ?
Oscar 19 25 Apr 03:05:00 03:10:09 59° 101° (E) 03:15:16 437.125 CW, 437.150 USB
AO-27 25 Apr 03:05:05 03:09:40 31° 96° (E) 03:14:15 436.795 MHz FM
